DW7447 Weather Reports


Display with metric or nautical units.
time (UTC)temp
F
wind
direction
speed
MPH
gust
MPH
rain 1hr
in
rain 24hr
in
rain mn
in
humidity
%
barometer
mb
20260505055729 41 295 2.0 7.0 0.00 0.00 0.00 94 1014.2
20260505055227 41 251 4.0 7.0 0.00 0.00 0.00 94 1014.1
20260505054225 40 282 3.0 7.0 0.00 0.00 0.00 94 1014.0
20260505053226 40 265 2.0 6.0 0.00 0.00 0.00 93 1014.0
20260505052225 40 279 2.0 8.0 0.00 0.00 0.00 93 1013.9
20260505051726 40 255 4.0 8.0 0.00 0.00 0.00 93 1014.1
20260505051228 40 241 3.0 7.0 0.00 0.00 0.00 93 1014.0
20260505050727 40 245 3.0 7.0 0.00 0.00 0.00 93 1013.9
20260505050225 40 262 4.0 7.0 0.00 0.00 0.00 93 1013.9
20260505041726 40 251 3.0 6.0 0.00 0.00 0.00 92 1013.8
20260505041225 40 251 3.0 6.0 0.00 0.00 0.00 92 1013.7
20260505040225 40 235 3.0 7.0 0.00 0.00 0.00 92 1013.8
20260505035729 40 252 4.0 7.0 0.00 0.00 0.00 92 1013.7
20260505035225 40 293 2.0 7.0 0.00 0.00 0.00 92 1013.8
20260505034227 40 262 3.0 6.0 0.00 0.00 0.00 92 1013.9
20260505033726 40 247 3.0 6.0 0.00 0.00 0.00 92 1013.8
20260505032727 41 295 2.0 7.0 0.00 0.00 0.00 92 1013.7
20260505032225 41 265 2.0 7.0 0.00 0.00 0.00 92 1013.7
20260505031726 41 264 2.0 7.0 0.00 0.00 0.00 92 1013.7
20260505030725 41 254 2.0 6.0 0.00 0.00 0.00 91 1013.8
20260505030227 41 259 3.0 6.0 0.00 0.00 0.00 92 1013.9
20260505025726 41 274 3.0 6.0 0.00 0.00 0.00 91 1013.9
20260505025225 41 266 3.0 6.0 0.00 0.00 0.00 91 1013.9
20260505024726 41 255 2.0 6.0 0.00 0.00 0.00 91 1014.0
20260505024227 41 271 3.0 6.0 0.00 0.00 0.00 91 1014.0
20260505023726 41 254 2.0 6.0 0.00 0.00 0.00 91 1014.0
20260505023225 41 251 3.0 6.0 0.00 0.00 0.00 91 1013.9
20260505022726 42 300 4.0 6.0 0.00 0.00 0.00 91 1014.0
20260505022228 42 282 3.0 7.0 0.00 0.00 0.00 91 1014.0
20260505021226 42 257 4.0 7.0 0.00 0.00 0.00 90 1014.1
20260505020725 42 278 4.0 7.0 0.00 0.00 0.00 90 1014.0
20260505015726 42 251 2.0 7.0 0.00 0.00 0.00 89 1014.1
20260505015231 43 261 4.0 7.0 0.00 0.00 0.00 89 1014.1
20260505014729 43 266 3.0 7.0 0.00 0.00 0.00 89 1014.1
20260505014225 43 264 3.0 7.0 0.00 0.00 0.00 89 1014.2
20260505013727 43 261 2.0 6.0 0.00 0.00 0.00 88 1014.3
20260505013226 44 261 2.0 6.0 0.00 0.00 0.00 88 1014.3
20260505012726 44 261 2.0 6.0 0.00 0.00 0.00 88 1014.3
20260505012228 44 261 2.0 5.0 0.00 0.01 0.00 88 1014.4
20260505011727 44 261 2.0 6.0 0.00 0.01 0.00 87 1014.4
20260505011226 45 261 3.0 6.0 0.00 0.01 0.00 87 1014.4
20260505010726 45 261 2.0 7.0 0.00 0.01 0.00 87 1014.4
20260505010225 45 290 3.0 7.0 0.00 0.01 0.00 87 1014.5
20260505005727 46 276 2.0 6.0 0.00 0.01 0.00 87 1014.3
20260505005227 46 275 2.0 6.0 0.00 0.01 0.00 86 1014.3
20260505004725 46 235 3.0 7.0 0.00 0.01 0.00 86 1014.3
20260505004225 46 265 3.0 7.0 0.00 0.01 0.00 86 1014.4
20260505003731 47 302 3.0 7.0 0.00 0.01 0.00 85 1014.3
20260505003227 47 265 3.0 9.0 0.00 0.01 0.00 85 1014.3
20260505002730 47 230 5.0 9.0 0.00 0.01 0.00 85 1014.4
20260505002227 47 219 4.0 7.0 0.00 0.01 0.00 84 1014.5
20260505001725 48 282 2.0 8.0 0.00 0.01 0.00 84 1014.4
20260505001225 48 240 4.0 12.0 0.00 0.01 0.00 83 1014.4
20260505000726 48 259 3.0 12.0 0.00 0.01 0.00 84 1014.4
20260505000226 48 250 5.0 9.0 0.00 0.01 0.00 84 1014.4
20260504235725 48 250 4.0 12.0 0.00 0.01 0.00 85 1014.4
20260504235227 48 210 6.0 12.0 0.00 0.01 0.00 85 1014.4
20260504234227 48 220 4.0 9.0 0.00 0.01 0.00 86 1014.4
20260504233729 49 247 3.0 8.0 0.00 0.01 0.00 86 1014.5
20260504233225 49 258 3.0 6.0 0.00 0.01 0.00 86 1014.5
20260504232725 49 243 2.0 7.0 0.00 0.01 0.00 86 1014.4
20260504230727 49 235 2.0 7.0 0.00 0.01 0.00 88 1014.4
20260504225725 48 238 3.0 9.0 0.00 0.02 0.02 89 1014.5
20260504225226 48 235 3.0 9.0 0.00 0.02 0.02 90 1014.5
20260504224725 48 248 2.0 8.0 0.00 0.02 0.02 90 1014.4
20260504224226 48 248 3.0 8.0 0.00 0.02 0.02 90 1014.5
20260504223718 48 228 4.0 7.0 0.00 0.02 0.02 89 1014.4
20260504223219 48 274 3.0 6.0 0.00 0.02 0.02 89 1014.6
20260504222714 49 252 3.0 7.0 0.00 0.02 0.02 88 1014.5
20260504221711 49 271 3.0 6.0 0.00 0.02 0.02 87 1014.6
20260504220203 50 281 3.0 6.0 0.00 0.03 0.02 87 1014.6
20260504215703 50 250 3.0 8.0 0.00 0.03 0.02 87 1014.6
20260504215202 50 231 3.0 8.0 0.00 0.03 0.02 86 1014.6
20260504214644 50 268 3.0 7.0 0.00 0.03 0.02 86 1014.6
20260504214144 50 252 3.0 6.0 0.00 0.03 0.02 85 1014.7
20260504213643 51 247 2.0 6.0 0.00 0.03 0.02 85 1014.7
20260504212631 51 282 2.0 5.0 0.00 0.04 0.02 84 1014.7
20260504212127 51 254 2.0 6.0 0.00 0.04 0.02 83 1014.7
20260504211628 52 254 2.0 6.0 0.00 0.04 0.02 83 1014.7
20260504211127 52 255 2.0 6.0 0.00 0.04 0.02 82 1014.6
20260504210127 53 264 3.0 8.0 0.00 0.04 0.02 81 1014.6
20260504205627 53 238 3.0 8.0 0.00 0.04 0.02 80 1014.7
20260504205128 53 209 4.0 7.0 0.00 0.04 0.02 80 1014.7
20260504204129 54 250 3.0 7.0 0.00 0.05 0.02 79 1014.7
20260504203627 54 214 3.0 7.0 0.00 0.05 0.02 79 1014.6
20260504203128 54 228 4.0 8.0 0.00 0.05 0.02 79 1014.6
20260504202629 54 241 3.0 8.0 0.00 0.05 0.02 79 1014.6
20260504201628 55 333 6.0 9.0 0.00 0.05 0.02 79 1014.5
20260504201128 55 196 5.0 9.0 0.00 0.05 0.02 78 1014.4
20260504200627 55 179 4.0 11.0 0.00 0.06 0.02 78 1014.4
20260504200127 55 175 4.0 11.0 0.00 0.06 0.02 78 1014.2
20260504195633 55 197 5.0 9.0 0.00 0.06 0.02 78 1014.3
20260504194627 55 210 6.0 12.0 0.00 0.06 0.02 78 1014.3
20260504194129 55 165 6.0 12.0 0.00 0.06 0.02 78 1014.3
20260504193627 55 183 4.0 13.0 0.00 0.06 0.02 77 1014.3
20260504193127 55 202 4.0 13.0 0.00 0.06 0.02 77 1014.2
20260504192628 55 199 4.0 9.0 0.00 0.07 0.02 77 1014.2
20260504192128 56 169 5.0 12.0 0.00 0.07 0.02 77 1014.1
20260504191629 56 176 6.0 12.0 0.00 0.08 0.02 76 1014.1
20260504191129 56 185 6.0 12.0 0.00 0.09 0.02 76 1014.1
20260504190628 56 204 6.0 13.0 0.00 0.09 0.02 76 1014.1
20260504190127 56 185 7.0 13.0 0.00 0.09 0.02 76 1014.1
20260504185627 56 166 4.0 9.0 0.00 0.09 0.02 75 1014.1
20260504185127 56 171 4.0 9.0 0.00 0.09 0.02 75 1014.1
20260504184627 57 227 4.0 11.0 0.00 0.09 0.02 74 1014.0
20260504184127 57 188 4.0 12.0 0.00 0.10 0.02 74 1014.1
20260504183128 57 176 7.0 12.0 0.00 0.10 0.02 74 1014.0
20260504182626 58 192 4.0 11.0 0.00 0.10 0.02 75 1014.0
20260504182127 57 189 2.0 9.0 0.00 0.11 0.02 75 1013.9
20260504181627 57 148 2.0 12.0 0.00 0.11 0.02 74 1014.0
20260504181128 57 196 6.0 12.0 0.00 0.12 0.02 74 1013.9
20260504180628 58 224 4.0 8.0 0.00 0.12 0.02 74 1014.0
20260504180126 57 179 4.0 11.0 0.00 0.12 0.02 73 1014.0
20260504175627 58 212 4.0 11.0 0.00 0.13 0.02 73 1013.9
20260504174627 58 193 5.0 12.0 0.00 0.13 0.02 73 1014.0
20260504174127 58 230 7.0 12.0 0.00 0.13 0.02 73 1014.0
20260504173632 58 179 6.0 11.0 0.00 0.13 0.02 73 1014.1
20260504173127 58 209 4.0 11.0 0.00 0.14 0.02 72 1014.1
20260504172628 58 180 6.0 13.0 0.00 0.14 0.02 72 1014.2
20260504172127 58 204 7.0 13.0 0.00 0.15 0.02 72 1014.2
20260504171629 58 202 6.0 13.0 0.00 0.15 0.02 72 1014.2
20260504171128 58 199 5.0 12.0 0.00 0.16 0.02 71 1014.2
20260504170627 58 224 5.0 12.0 0.00 0.16 0.02 71 1014.2
20260504170128 59 193 6.0 12.0 0.00 0.16 0.02 71 1014.3
20260504160127 61 244 4.0 11.0 0.00 0.18 0.02 65 1014.3
20260504151126 61 203 3.0 11.0 0.00 0.20 0.02 67 1014.5
20260504150127 60 285 4.0 13.0 0.00 0.20 0.02 67 1014.6
20260504141127 60 230 6.0 11.0 0.00 0.23 0.02 67 1014.9
20260504140626 61 250 4.0 9.0 0.00 0.23 0.02 67 1014.9
20260504140127 61 314 5.0 12.0 0.00 0.24 0.02 68 1014.9
20260504130130 60 310 5.0 12.0 0.00 0.28 0.02 71 1015.1
20260504120126 59 266 5.0 9.0 0.00 0.35 0.02 72 1015.2
20260504110606 56 254 3.0 8.0 0.00 0.35 0.02 78 1015.6
20260504100527 54 278 2.0 7.0 0.00 0.37 0.02 83 1015.6
20260504081524 49 331 1.0 5.0 0.00 0.43 0.02 93 1015.8
20260504081030 48 331 2.0 5.0 0.00 0.44 0.02 94 1015.8
20260504080526 48 271 1.0 4.0 0.00 0.45 0.02 95 1015.7